St. Francis, KS

9:14 AM CDT on May 26, 2017 (GMT -0500)
Cheyenne County Municipal

Weather History for KSYF - September, 2013

Change the Weather History Date:

Thursday, September 12, 2013

  Actual Average Record
Temperature  
Mean Temperature 65 °F -  
Max Temperature 67 °F 81 °F 87 °F (2015)
Min Temperature 63 °F 52 °F 34 °F (2014)
Growing Degree Days 15 (Base 50)    
Moisture  
Dew Point 61 °F    
Average Humidity 89    
Maximum Humidity 91    
Minimum Humidity 80    
Precipitation  
Precipitation 0.00 in - - ()
Sea Level Pressure  
Sea Level Pressure 30.24 in    
Wind  
Wind Speed 10 mph (East)    
Max Wind Speed 21 mph    
Max Gust Speed 24 mph    
Visibility 8 miles    
Events Rain    
Averages and records for this station are not official NWS values.
T = Trace of Precipitation, MM = Missing Value Source: NWS Daily Summary

Daily Weather History Graph

Daily Weather History Graph

Search for Another Location

Airport or City:

Trip Planner

Search our weather history database for the weather conditions in past years. The results will help you decide how hot, cold, wet, or windy it might be!

Date:

Astronomy

Sep. 12, 2013 Rise Set
Actual Time 7:25 AM CDT 8:00 PM CDT
Civil Twilight 6:58 AM CDT 8:27 PM CDT
Nautical Twilight 6:26 AM CDT 8:59 PM CDT
Astronomical Twilight 5:53 AM CDT 9:32 PM CDT
Moon 2:54 PM CDT (9/12) 12:00 AM CDT (9/12)
Length of Visible Light 13h 28m
Length of Day
12h 34m
Waxing Crescent, 50% of the Moon is Illuminated
Sep 12
Waxing Crescent
Sep 12
First Quarter
Sep 19
Full
Sep 26
Last Quarter
Oct 4
New

Hourly Weather History & Observations

Time (CDT) Temp. Dew Point Humidity Pressure Visibility Wind Dir Wind Speed Gust Speed Precip Events Conditions
12:15 AM 63.9 °F 61.0 °F 90% 30.22 in 10.0 mi SE 10.4 mph - N/A   Light Drizzle
12:35 AM 64.0 °F 61.2 °F 90% 30.21 in 10.0 mi SE 11.5 mph - N/A   Drizzle
12:55 AM 64.2 °F 61.2 °F 90% 30.22 in 7.0 mi SE 11.5 mph 16.1 mph N/A Rain Rain
1:15 AM 64.2 °F 61.5 °F 91% 30.22 in 7.0 mi SE 6.9 mph - N/A Rain Rain
1:35 AM 64.4 °F 61.3 °F 90% 30.21 in 10.0 mi ESE 6.9 mph - N/A   Overcast
1:55 AM 64.4 °F 61.7 °F 91% 30.22 in 10.0 mi East 6.9 mph - N/A   Overcast
2:15 AM 64.4 °F 61.7 °F 91% 30.22 in 7.0 mi ESE 8.1 mph - N/A   Overcast
2:35 AM 64.6 °F 61.7 °F 90% 30.22 in 7.0 mi East 6.9 mph - N/A   Overcast
2:55 AM 64.6 °F 61.7 °F 90% 30.23 in 5.0 mi ESE 5.8 mph - N/A Rain Light Rain
3:15 AM 64.4 °F 61.7 °F 91% 30.22 in 5.0 mi ESE 10.4 mph - N/A   Drizzle
3:35 AM 64.4 °F 61.7 °F 91% 30.22 in 7.0 mi East 9.2 mph - N/A   Overcast
3:55 AM 64.0 °F 61.2 °F 90% 30.22 in 10.0 mi ESE 5.8 mph - N/A   Overcast
4:15 AM 64.2 °F 61.3 °F 90% 30.22 in 10.0 mi ESE 8.1 mph - N/A   Overcast
4:35 AM 64.2 °F 61.3 °F 90% 30.22 in 10.0 mi ESE 6.9 mph - N/A   Overcast
4:55 AM 64.4 °F 61.3 °F 90% 30.22 in 10.0 mi ESE 8.1 mph - N/A   Overcast
5:15 AM 64.4 °F 61.7 °F 91% 30.22 in 10.0 mi ESE 5.8 mph - N/A   Overcast
5:35 AM 64.4 °F 61.7 °F 91% 30.23 in 7.0 mi ESE 5.8 mph - N/A   Overcast
5:55 AM 64.4 °F 61.7 °F 91% 30.23 in 7.0 mi East 8.1 mph - N/A Rain Rain
6:15 AM 64.0 °F 61.5 °F 91% 30.23 in 10.0 mi East 9.2 mph - N/A   Overcast
6:35 AM 63.7 °F 61.0 °F 91% 30.23 in 7.0 mi ESE 11.5 mph - N/A Rain Light Rain
6:55 AM 63.7 °F 60.8 °F 90% 30.24 in 10.0 mi East 8.1 mph - N/A   Overcast
7:15 AM 63.7 °F 60.8 °F 90% 30.24 in 10.0 mi East 9.2 mph - N/A   Overcast
7:35 AM 63.7 °F 60.8 °F 90% 30.24 in 10.0 mi East 6.9 mph - N/A   Overcast
7:55 AM 63.7 °F 60.8 °F 90% 30.24 in 5.0 mi East 9.2 mph - N/A   Overcast
8:15 AM 63.9 °F 61.0 °F 90% 30.25 in 10.0 mi East 8.1 mph - N/A   Overcast
8:35 AM 64.4 °F 61.3 °F 90% 30.25 in 7.0 mi East 8.1 mph - N/A   Overcast
8:55 AM 64.4 °F 61.3 °F 90% 30.25 in 10.0 mi East 8.1 mph - N/A   Overcast
9:15 AM 64.8 °F 61.7 °F 90% 30.26 in 10.0 mi East 8.1 mph - N/A   Overcast
9:35 AM 65.3 °F 61.9 °F 89% 30.26 in 7.0 mi East 10.4 mph - N/A   Overcast
9:55 AM 65.1 °F 61.9 °F 89% 30.26 in 2.5 mi ENE 8.1 mph - N/A   Drizzle
10:15 AM 64.9 °F 61.9 °F 90% 30.26 in 2.5 mi ENE 10.4 mph - N/A   Drizzle
10:35 AM 65.1 °F 62.1 °F 90% 30.26 in 2.0 mi ENE 9.2 mph - N/A Rain Rain
10:55 AM 65.7 °F 62.1 °F 88% 30.28 in 10.0 mi East 12.7 mph - N/A   Overcast
11:15 AM 66.4 °F 61.9 °F 85% 30.28 in 10.0 mi East 15.0 mph - N/A   Overcast
11:35 AM 66.9 °F 61.9 °F 84% 30.28 in 10.0 mi ENE 15.0 mph 19.6 mph N/A   Overcast
11:55 AM 67.1 °F 61.5 °F 82% 30.28 in 10.0 mi East 12.7 mph - N/A   Overcast
12:15 PM 67.3 °F 61.3 °F 81% 30.28 in 10.0 mi East 10.4 mph - N/A   Overcast
12:35 PM 67.3 °F 61.0 °F 80% 30.28 in 10.0 mi East 11.5 mph - N/A   Overcast
12:55 PM 67.6 °F 61.3 °F 80% 30.28 in 10.0 mi East 10.4 mph - N/A   Overcast
1:15 PM 67.1 °F 61.0 °F 81% 30.27 in 10.0 mi East 13.8 mph 17.3 mph N/A   Overcast
1:35 PM 65.1 °F 61.3 °F 88% 30.26 in 5.0 mi East 13.8 mph - N/A   Overcast
1:55 PM 65.7 °F 62.2 °F 89% 30.26 in 10.0 mi East 10.4 mph - N/A Rain Rain
2:15 PM 65.3 °F 62.1 °F 89% 30.26 in 2.0 mi East 15.0 mph 20.7 mph N/A Rain Light Rain
2:35 PM 64.4 °F 61.3 °F 90% 30.25 in 5.0 mi East 12.7 mph - N/A Rain Light Rain
2:55 PM 64.4 °F 61.5 °F 90% 30.25 in 5.0 mi East 11.5 mph - N/A Rain Light Rain
3:15 PM 64.6 °F 61.7 °F 90% 30.25 in 5.0 mi East 12.7 mph - N/A Rain Rain
3:35 PM 64.2 °F 61.3 °F 90% 30.24 in 3.0 mi East 13.8 mph 17.3 mph N/A Rain Rain
3:55 PM 63.7 °F 61.0 °F 91% 30.24 in 5.0 mi East 12.7 mph - N/A Rain Rain
4:15 PM 63.7 °F 61.0 °F 91% 30.23 in 5.0 mi East 12.7 mph - N/A Rain Rain
4:35 PM 63.9 °F 61.2 °F 91% 30.22 in 5.0 mi East 15.0 mph 18.4 mph N/A Rain Rain
4:55 PM 63.9 °F 61.2 °F 91% 30.22 in 5.0 mi ESE 15.0 mph - N/A Rain Rain
5:15 PM 63.9 °F 61.2 °F 91% 30.21 in 5.0 mi East 12.7 mph - N/A Rain Rain
5:35 PM 64.0 °F 61.3 °F 91% 30.21 in 5.0 mi East 11.5 mph - N/A Rain Rain
5:55 PM 64.2 °F 61.7 °F 91% 30.21 in 7.0 mi East 11.5 mph - N/A Rain Light Rain
6:15 PM 64.4 °F 61.7 °F 91% 30.21 in 7.0 mi East 10.4 mph - N/A Rain Light Rain
6:35 PM 64.6 °F 61.9 °F 91% 30.20 in 7.0 mi East 12.7 mph 18.4 mph N/A Rain Light Rain
6:55 PM 64.6 °F 61.9 °F 91% 30.20 in 7.0 mi East 15.0 mph 20.7 mph N/A Rain Light Rain
7:15 PM 64.4 °F 61.5 °F 90% 30.20 in 10.0 mi East 20.7 mph 24.2 mph N/A Rain Rain
7:35 PM 64.4 °F 61.5 °F 90% 30.21 in 10.0 mi East 11.5 mph - N/A Rain Light Rain
7:55 PM 64.4 °F 61.5 °F 90% 30.21 in 10.0 mi East 12.7 mph - N/A Rain Light Rain
8:15 PM 64.4 °F 61.3 °F 90% 30.21 in 10.0 mi East 11.5 mph - N/A   Light Drizzle
8:35 PM 64.4 °F 61.3 °F 90% 30.21 in 10.0 mi East 11.5 mph - N/A   Drizzle
8:55 PM 64.4 °F 61.3 °F 90% 30.22 in 10.0 mi East 10.4 mph - N/A Rain Light Rain
9:15 PM 64.4 °F 61.5 °F 90% 30.23 in 10.0 mi East 9.2 mph - N/A Rain Light Rain
9:35 PM 64.4 °F 61.7 °F 91% 30.24 in 7.0 mi East 9.2 mph - N/A Rain Rain
9:55 PM 64.4 °F 61.7 °F 91% 30.24 in 10.0 mi East 9.2 mph - N/A Rain Light Rain
10:15 PM 64.2 °F 61.2 °F 90% 30.23 in 10.0 mi ESE 11.5 mph - N/A Rain Light Rain
10:35 PM 64.0 °F 61.2 °F 90% 30.23 in 10.0 mi East 11.5 mph - N/A Rain Rain
10:55 PM 63.9 °F 61.0 °F 90% 30.23 in 10.0 mi East 12.7 mph - N/A Rain Light Rain
11:15 PM 63.7 °F 60.8 °F 90% 30.23 in 10.0 mi East 11.5 mph - N/A Rain Light Rain
11:35 PM 63.7 °F 60.8 °F 90% 30.23 in 10.0 mi East 11.5 mph - N/A Rain Light Rain
11:55 PM 63.7 °F 60.4 °F 89% 30.23 in 10.0 mi ESE 12.7 mph 20.7 mph N/A   Light Drizzle